User: anonymous   Login
Location: Boissi�res
(45.2500°N, 2.3667°E)
Time: 13:18:49
(UTC+00:00)
Language:

ERBS - Orbit

View from above orbital plane
View from above orbital plane
View from above satellite
View from above satellite

Ground track
Ground track

The orbit data is extracted from the following two-line orbital elements,

1 15354U 84108B   21127.18449531  .00003822  00000-0  68581-4 0  9994
2 15354  57.0039 106.7963 0006519 352.9501   7.1465 15.52494650 18061
Epoch (UTC): 07 May 2021 04:25:40
Eccentricity: 0.0006519
inclination: 57.0039°
perigee height: 405 km
apogee height: 414 km
right ascension of ascending node: 106.7963°
argument of perigee: 352.9501°
revolutions per day: 15.52494650
mean anomaly at epoch: 7.1465°
orbit number at epoch: 1806

The dashed part of the orbit path shows where the satellite is in the earth's shadow,  

DLR